| time (UTC) | temp F | wind direction | speed knots | gust knots | rain 1hr in | rain 24hr in | rain mn in | humidity % | barometer mb |
| 20260507231518 | 57 | 256 | 1.7 | 4.3 | 0.00 | 0.00 | 0.00 | 46 | 1010.8 |
| 20260507230518 | 57 | 267 | 1.7 | 5.2 | 0.00 | 0.00 | 0.00 | 46 | 1010.8 |
| 20260507225519 | 57 | 247 | 2.6 | 7.8 | 0.00 | 0.00 | 0.00 | 46 | 1010.7 |
| 20260507224519 | 57 | 248 | 1.7 | 5.2 | 0.00 | 0.00 | 0.00 | 47 | 1010.7 |
| 20260507223539 | 58 | 246 | 1.7 | 5.2 | 0.00 | 0.00 | 0.00 | 45 | 1010.6 |
| 20260507222539 | 57 | 261 | 1.7 | 6.1 | 0.00 | 0.00 | 0.00 | 47 | 1010.4 |
| 20260507221519 | 58 | 254 | 1.7 | 4.3 | 0.00 | 0.00 | 0.00 | 46 | 1010.5 |
| 20260507220519 | 59 | 285 | 1.7 | 6.1 | 0.00 | 0.00 | 0.00 | 45 | 1010.2 |
| 20260507215540 | 58 | 180 | 2.6 | 7.0 | 0.00 | 0.00 | 0.00 | 47 | 1010.2 |
| 20260507214517 | 59 | 276 | 1.7 | 7.8 | 0.00 | 0.00 | 0.00 | 45 | 1010.1 |
| 20260507213517 | 59 | 224 | 1.7 | 5.2 | 0.00 | 0.00 | 0.00 | 45 | 1009.9 |
| 20260507212520 | 60 | 286 | 2.6 | 7.0 | 0.00 | 0.00 | 0.00 | 45 | 1010.1 |
| 20260507211600 | 60 | 207 | 2.6 | 7.0 | 0.00 | 0.00 | 0.00 | 45 | 1009.9 |
| 20260507210537 | 59 | 261 | 2.6 | 6.1 | 0.00 | 0.00 | 0.00 | 48 | 1009.8 |
| 20260507205518 | 59 | 262 | 1.7 | 7.0 | 0.00 | 0.00 | 0.00 | 45 | 1009.8 |
| 20260507204517 | 60 | 254 | 2.6 | 6.1 | 0.00 | 0.00 | 0.00 | 45 | 1009.8 |
| 20260507203518 | 59 | 294 | 2.6 | 7.0 | 0.00 | 0.00 | 0.00 | 47 | 1009.8 |
| 20260507202538 | 60 | 292 | 2.6 | 6.1 | 0.00 | 0.00 | 0.00 | 45 | 1009.9 |
| 20260507201518 | 60 | 251 | 3.5 | 8.7 | 0.00 | 0.00 | 0.00 | 48 | 1009.8 |
| 20260507200518 | 60 | 294 | 2.6 | 7.0 | 0.00 | 0.00 | 0.00 | 46 | 1010.0 |
| 20260507195519 | 61 | 290 | 2.6 | 12.2 | 0.00 | 0.00 | 0.00 | 46 | 1010.1 |
| 20260507194539 | 63 | 221 | 2.6 | 7.8 | 0.00 | 0.00 | 0.00 | 45 | 1009.9 |
| 20260507193519 | 61 | 215 | 2.6 | 8.7 | 0.00 | 0.00 | 0.00 | 47 | 1010.0 |
| 20260507192519 | 60 | 306 | 2.6 | 6.1 | 0.00 | 0.00 | 0.00 | 49 | 1010.2 |
| 20260507191536 | 59 | 200 | 1.7 | 7.8 | 0.00 | 0.00 | 0.00 | 48 | 1010.2 |
| 20260507190517 | 61 | 282 | 1.7 | 4.3 | 0.00 | 0.00 | 0.00 | 52 | 1010.2 |
| 20260507185520 | 61 | 261 | 1.7 | 5.2 | 0.00 | 0.00 | 0.00 | 49 | 1010.3 |
| 20260507184520 | 59 | 263 | 1.7 | 5.2 | 0.00 | 0.00 | 0.00 | 55 | 1010.2 |
| 20260507183520 | 58 | 283 | 1.7 | 4.3 | 0.00 | 0.00 | 0.00 | 51 | 1010.7 |
| 20260507182520 | 58 | 276 | 1.7 | 7.0 | 0.00 | 0.00 | 0.00 | 52 | 1010.7 |
| 20260507181517 | 59 | 190 | 3.5 | 7.8 | 0.00 | 0.00 | 0.00 | 52 | 1010.5 |
| 20260507180518 | 59 | 285 | 2.6 | 7.0 | 0.00 | 0.00 | 0.00 | 52 | 1010.7 |
| 20260507175518 | 59 | 262 | 0.9 | 5.2 | 0.00 | 0.00 | 0.00 | 51 | 1010.8 |
| 20260507174518 | 59 | 195 | 2.6 | 7.0 | 0.00 | 0.00 | 0.00 | 48 | 1010.7 |
| 20260507173538 | 60 | 261 | 3.5 | 7.8 | 0.00 | 0.00 | 0.00 | 51 | 1010.9 |
| 20260507172518 | 60 | 296 | 2.6 | 7.8 | 0.00 | 0.00 | 0.00 | 53 | 1010.9 |
| 20260507171518 | 60 | 228 | 1.7 | 6.1 | 0.00 | 0.00 | 0.00 | 51 | 1011.2 |
| 20260507170518 | 61 | 213 | 2.6 | 6.1 | 0.00 | 0.00 | 0.00 | 52 | 1011.1 |
| 20260507165518 | 58 | 169 | 2.6 | 7.8 | 0.00 | 0.00 | 0.00 | 52 | 1011.4 |
| 20260507164539 | 59 | 285 | 1.7 | 6.1 | 0.00 | 0.00 | 0.00 | 53 | 1011.4 |
| 20260507163516 | 58 | 180 | 1.7 | 5.2 | 0.00 | 0.00 | 0.00 | 50 | 1011.5 |
| 20260507162519 | 59 | 245 | 2.6 | 6.1 | 0.00 | 0.00 | 0.00 | 52 | 1011.5 |
| 20260507161520 | 60 | 274 | 1.7 | 7.0 | 0.00 | 0.00 | 0.00 | 53 | 1011.6 |
| 20260507160519 | 59 | 188 | 1.7 | 4.3 | 0.00 | 0.00 | 0.00 | 52 | 1011.7 |
| 20260507155520 | 60 | 241 | 1.7 | 4.3 | 0.00 | 0.00 | 0.00 | 53 | 1011.6 |
| 20260507154517 | 58 | 209 | 2.6 | 7.0 | 0.00 | 0.00 | 0.00 | 54 | 1011.8 |
| 20260507153517 | 59 | 287 | 2.6 | 7.8 | 0.00 | 0.00 | 0.00 | 55 | 1011.9 |
| 20260507152517 | 57 | 252 | 2.6 | 7.8 | 0.00 | 0.00 | 0.00 | 55 | 1012.0 |
| 20260507151520 | 58 | 283 | 2.6 | 7.0 | 0.00 | 0.00 | 0.00 | 58 | 1012.1 |
| 20260507150521 | 57 | 178 | 2.6 | 7.0 | 0.00 | 0.00 | 0.00 | 56 | 1012.2 |
| 20260507145521 | 57 | 294 | 2.6 | 7.8 | 0.00 | 0.00 | 0.00 | 58 | 1012.5 |
| 20260507144518 | 57 | 204 | 3.5 | 8.7 | 0.00 | 0.00 | 0.00 | 55 | 1012.6 |
| 20260507143518 | 57 | 302 | 1.7 | 5.2 | 0.00 | 0.00 | 0.00 | 61 | 1012.7 |
| 20260507142538 | 56 | 301 | 1.7 | 4.3 | 0.00 | 0.00 | 0.00 | 60 | 1012.7 |
| 20260507141619 | 56 | 226 | 0.9 | 5.2 | 0.00 | 0.00 | 0.00 | 61 | 1012.9 |
| 20260507140518 | 55 | 236 | 1.7 | 5.2 | 0.00 | 0.00 | 0.00 | 64 | 1013.0 |
| 20260507135519 | 54 | 258 | 1.7 | 4.3 | 0.00 | 0.00 | 0.00 | 64 | 1013.2 |
| 20260507134539 | 53 | 194 | 1.7 | 6.1 | 0.00 | 0.00 | 0.00 | 65 | 1013.2 |
| 20260507133539 | 53 | 211 | 1.7 | 4.3 | 0.00 | 0.00 | 0.00 | 68 | 1013.2 |
| 20260507132519 | 52 | 174 | 1.7 | 4.3 | 0.00 | 0.00 | 0.00 | 71 | 1013.3 |
| 20260507131519 | 50 | 44 | 1.7 | 3.5 | 0.00 | 0.00 | 0.00 | 79 | 1013.3 |
| 20260507130520 | 46 | 70 | 0.9 | 3.5 | 0.00 | 0.00 | 0.00 | 91 | 1013.4 |
| 20260507125523 | 44 | 31 | 0.9 | 1.7 | 0.00 | 0.00 | 0.00 | 97 | 1013.5 |
| 20260507124523 | 43 | 9 | 0.9 | 3.5 | 0.00 | 0.00 | 0.00 | 99 | 1013.5 |
| 20260507123523 | 42 | 335 | 0.9 | 1.7 | 0.00 | 0.00 | 0.00 | 99 | 1013.6 |
| 20260507122524 | 41 | 332 | 0.0 | 1.7 | 0.00 | 0.00 | 0.00 | 99 | 1013.7 |
| 20260507121523 | 40 | 16 | 0.0 | 0.9 | 0.00 | 0.00 | 0.00 | 99 | 1013.7 |
| 20260507120523 | 38 | 41 | 0.0 | 0.9 | 0.00 | 0.01 | 0.00 | 99 | 1013.7 |
| 20260507115523 | 37 | 58 | 0.0 | 0.9 | 0.00 | 0.02 | 0.00 | 99 | 1013.6 |
| 20260507114524 | 36 | 69 | 0.0 | 0.0 | 0.00 | 0.03 | 0.00 | 98 | 1013.6 |
| 20260507113524 | 35 | 9 | 0.0 | 1.7 | 0.00 | 0.04 | 0.00 | 98 | 1013.5 |
| 20260507112524 | 35 | 357 | 0.0 | 0.9 | 0.00 | 0.04 | 0.00 | 98 | 1013.4 |
| 20260507111544 | 34 | 319 | 0.0 | 0.9 | 0.00 | 0.04 | 0.00 | 98 | 1013.4 |
| 20260507110524 | 34 | 0.0 | 0.0 | 0.00 | 0.04 | 0.00 | 98 | 1013.4 | |
| 20260507105545 | 34 | 335 | 0.0 | 0.0 | 0.00 | 0.05 | 0.00 | 98 | 1013.4 |
| 20260507104525 | 34 | 346 | 0.0 | 0.0 | 0.00 | 0.06 | 0.00 | 98 | 1013.2 |
| 20260507103525 | 34 | 287 | 0.0 | 0.9 | 0.00 | 0.08 | 0.00 | 97 | 1013.1 |
| 20260507102525 | 34 | 303 | 0.0 | 0.9 | 0.00 | 0.09 | 0.00 | 97 | 1013.1 |
| 20260507101525 | 34 | 20 | 0.0 | 0.0 | 0.00 | 0.11 | 0.00 | 97 | 1013.1 |
| 20260507100526 | 34 | 340 | 0.0 | 0.0 | 0.00 | 0.15 | 0.00 | 97 | 1013.1 |
| 20260507095526 | 35 | 301 | 0.0 | 0.9 | 0.00 | 0.18 | 0.00 | 97 | 1013.0 |
| 20260507094526 | 35 | 305 | 0.0 | 0.9 | 0.00 | 0.20 | 0.00 | 97 | 1013.1 |
| 20260507093526 | 35 | 282 | 0.0 | 0.9 | 0.00 | 0.22 | 0.00 | 97 | 1013.1 |
| 20260507092526 | 35 | 320 | 0.0 | 0.9 | 0.00 | 0.24 | 0.00 | 97 | 1013.1 |
| 20260507091526 | 35 | 310 | 0.0 | 1.7 | 0.00 | 0.25 | 0.00 | 97 | 1013.2 |
| 20260507090526 | 35 | 305 | 0.0 | 1.7 | 0.00 | 0.27 | 0.00 | 96 | 1013.3 |
| 20260507085526 | 36 | 335 | 0.0 | 0.9 | 0.00 | 0.30 | 0.00 | 96 | 1013.3 |
| 20260507084526 | 36 | 320 | 0.0 | 0.9 | 0.00 | 0.32 | 0.00 | 96 | 1013.2 |
| 20260507083527 | 36 | 317 | 0.0 | 0.9 | 0.00 | 0.34 | 0.00 | 96 | 1013.2 |
| 20260507082527 | 37 | 295 | 0.0 | 0.9 | 0.00 | 0.35 | 0.00 | 96 | 1013.2 |
| 20260507081527 | 37 | 332 | 0.0 | 0.9 | 0.00 | 0.36 | 0.00 | 96 | 1013.1 |
| 20260507080527 | 37 | 322 | 0.0 | 0.9 | 0.00 | 0.36 | 0.00 | 95 | 1013.1 |
| 20260507075527 | 37 | 329 | 0.9 | 1.7 | 0.00 | 0.36 | 0.00 | 95 | 1013.1 |
| 20260507074528 | 38 | 315 | 0.0 | 0.9 | 0.00 | 0.36 | 0.00 | 95 | 1013.2 |
| 20260507073528 | 38 | 2 | 0.0 | 0.9 | 0.00 | 0.36 | 0.00 | 94 | 1013.2 |
| 20260507072528 | 38 | 320 | 0.0 | 0.9 | 0.00 | 0.36 | 0.00 | 94 | 1013.3 |
| 20260507071528 | 39 | 324 | 0.0 | 1.7 | 0.00 | 0.36 | 0.00 | 93 | 1013.3 |
| 20260507070529 | 40 | 333 | 0.0 | 0.9 | 0.00 | 0.36 | 0.00 | 92 | 1013.3 |
| 20260507065528 | 40 | 336 | 0.0 | 0.9 | 0.00 | 0.36 | 0.00 | 92 | 1013.4 |
| 20260507064529 | 41 | 340 | 0.9 | 1.7 | 0.00 | 0.37 | 0.00 | 91 | 1013.3 |
| 20260507063529 | 42 | 342 | 0.9 | 1.7 | 0.00 | 0.38 | 0.00 | 90 | 1013.3 |
| 20260507062529 | 43 | 344 | 1.7 | 1.7 | 0.00 | 0.39 | 0.00 | 89 | 1013.3 |
| 20260507061530 | 44 | 352 | 0.9 | 1.7 | 0.00 | 0.40 | 0.00 | 88 | 1013.3 |
| 20260507060529 | 45 | 337 | 0.0 | 1.7 | 0.00 | 0.40 | 0.00 | 89 | 1013.3 |
| 20260507055530 | 45 | 331 | 0.0 | 0.9 | 0.00 | 0.41 | 0.00 | 88 | 1013.4 |
| 20260507054530 | 46 | 352 | 0.0 | 0.9 | 0.00 | 0.41 | 0.00 | 87 | 1013.5 |
| 20260507053550 | 46 | 352 | 0.0 | 0.9 | 0.00 | 0.41 | 0.00 | 88 | 1013.8 |
| 20260507052519 | 46 | 325 | 0.0 | 1.7 | 0.00 | 0.41 | 0.00 | 89 | 1013.9 |
| 20260507051539 | 46 | 323 | 0.0 | 0.9 | 0.00 | 0.42 | 0.00 | 88 | 1013.9 |
| 20260507050519 | 46 | 320 | 0.0 | 0.9 | 0.00 | 0.43 | 0.00 | 89 | 1013.9 |
| 20260507045521 | 46 | 296 | 0.0 | 0.9 | 0.00 | 0.43 | 0.00 | 89 | 1013.9 |
| 20260507044519 | 46 | 317 | 0.0 | 0.9 | 0.00 | 0.44 | 0.00 | 89 | 1013.8 |
| 20260507043519 | 46 | 322 | 0.0 | 1.7 | 0.00 | 0.44 | 0.00 | 89 | 1013.8 |
| 20260507042519 | 46 | 299 | 0.0 | 1.7 | 0.00 | 0.44 | 0.00 | 89 | 1013.9 |
| 20260507041516 | 46 | 326 | 0.0 | 0.9 | 0.00 | 0.44 | 0.00 | 89 | 1013.8 |
| 20260507040517 | 47 | 321 | 0.0 | 1.7 | 0.00 | 0.44 | 0.00 | 90 | 1013.8 |
| 20260507035517 | 47 | 326 | 0.0 | 1.7 | 0.00 | 0.44 | 0.44 | 89 | 1013.6 |
| 20260507034521 | 47 | 330 | 0.0 | 0.9 | 0.00 | 0.44 | 0.44 | 89 | 1013.7 |
| 20260507033537 | 47 | 321 | 0.0 | 0.9 | 0.00 | 0.44 | 0.44 | 88 | 1013.6 |
| 20260507032517 | 47 | 337 | 0.0 | 1.7 | 0.00 | 0.44 | 0.44 | 87 | 1013.5 |
| 20260507031558 | 47 | 323 | 0.0 | 0.9 | 0.00 | 0.44 | 0.44 | 88 | 1013.4 |
| 20260507030518 | 47 | 339 | 0.0 | 0.9 | 0.00 | 0.44 | 0.44 | 87 | 1013.4 |
| 20260507025538 | 48 | 337 | 0.0 | 0.9 | 0.00 | 0.44 | 0.44 | 86 | 1013.5 |
| 20260507024518 | 48 | 339 | 0.0 | 1.7 | 0.00 | 0.44 | 0.44 | 86 | 1013.3 |
| 20260507023518 | 48 | 348 | 0.9 | 1.7 | 0.00 | 0.44 | 0.44 | 86 | 1013.3 |
| 20260507022539 | 48 | 350 | 0.9 | 1.7 | 0.00 | 0.44 | 0.44 | 84 | 1013.1 |
| 20260507021519 | 49 | 350 | 0.9 | 1.7 | 0.00 | 0.44 | 0.44 | 85 | 1013.2 |
| 20260507020519 | 49 | 353 | 0.0 | 1.7 | 0.00 | 0.44 | 0.44 | 83 | 1013.0 |
| 20260507015539 | 49 | 357 | 0.0 | 1.7 | 0.00 | 0.44 | 0.44 | 81 | 1012.8 |
| 20260507014539 | 49 | 0 | 0.0 | 1.7 | 0.00 | 0.44 | 0.44 | 81 | 1012.5 |
| 20260507013516 | 49 | 341 | 0.0 | 1.7 | 0.00 | 0.44 | 0.44 | 77 | 1012.5 |
| 20260507012519 | 49 | 4 | 0.0 | 2.6 | 0.00 | 0.44 | 0.44 | 77 | 1012.5 |
| 20260507011520 | 49 | 5 | 0.9 | 2.6 | 0.00 | 0.44 | 0.44 | 79 | 1012.4 |
| 20260507010620 | 50 | 345 | 0.9 | 1.7 | 0.00 | 0.44 | 0.44 | 84 | 1012.6 |
| 20260507005537 | 50 | 350 | 0.9 | 1.7 | 0.00 | 0.44 | 0.44 | 83 | 1012.7 |
| 20260507004518 | 50 | 345 | 0.9 | 1.7 | 0.00 | 0.44 | 0.44 | 83 | 1013.0 |
| 20260507003538 | 51 | 346 | 0.0 | 1.7 | 0.00 | 0.44 | 0.44 | 79 | 1012.8 |
| 20260507002538 | 51 | 336 | 0.9 | 1.7 | 0.00 | 0.44 | 0.44 | 78 | 1012.9 |
| 20260507001520 | 52 | 360 | 0.0 | 1.7 | 0.00 | 0.44 | 0.44 | 75 | 1012.7 |
| 20260507000538 | 52 | 313 | 0.0 | 0.9 | 0.00 | 0.44 | 0.44 | 71 | 1012.7 |
| 20260506235538 | 53 | 279 | 0.9 | 3.5 | 0.00 | 0.44 | 0.44 | 70 | 1012.7 |
| 20260506234519 | 53 | 214 | 0.9 | 2.6 | 0.00 | 0.44 | 0.44 | 74 | 1012.4 |
| 20260506233518 | 53 | 317 | 0.9 | 3.5 | 0.00 | 0.44 | 0.44 | 76 | 1012.3 |
| 20260506232518 | 54 | 327 | 0.0 | 1.7 | 0.00 | 0.44 | 0.44 | 78 | 1012.2 |